Location: Saint Louis
(38.6272°N, 90.1978°W)
Time: 13:15:37
(UTC-05:00)

ISS - Pass Details

Date: 25 May 2013
Orbit: 401 x 404 km, 51.6° (Epoch: 28 July)

Event Time Altitude Azimuth Distance (km) Brightness Sun altitude
Exits shadow 02:17:26 - 307° (NW) 2,376 0.8 -27.5°
Enters shadow 03:33:49 -47° 283° (WNW) 9,914 3.7 -20.1°
Maximum altitude 04:00:20 15° 20° (NNE) 1,216 0.0 -16.6°
